CW8919 Weather Reports


time (UTC)temp
F
wind
direction
speed
knots
gust
knots
rain 1hr
in
rain 24hr
in
rain mn
in
humidity
%
barometer
mb
20210920044428 65 76 3.5 13.9 0.00 0.00 0.00 83 1020.7
20210920042928 65 16 5.2 13.0 0.00 0.00 0.00 83 1020.4
20210920041428 65 343 1.7 16.5 0.00 0.00 0.00 83 1020.3
20210920035926 65 349 4.3 15.6 0.00 0.00 0.00 83 1020.3
20210920034430 65 348 3.5 14.8 0.00 0.00 0.00 83 1020.2
20210920032926 65 348 7.8 18.2 0.00 0.00 0.00 83 1020.1
20210920031425 66 349 3.5 18.2 0.00 0.00 0.00 83 1020.1
20210920025935 66 328 6.1 19.1 0.00 0.00 0.00 83 1020.2
20210920024437 66 324 13.0 26.1 0.00 0.00 0.00 83 1020.2
20210920022933 66 326 11.3 24.3 0.00 0.00 0.00 83 1020.0
20210920021433 66 347 13.9 26.9 0.00 0.00 0.00 83 1019.9
20210920015936 66 328 8.7 22.6 0.00 0.00 0.00 82 1019.9
20210920014437 66 5 8.7 24.3 0.00 0.00 0.00 81 1020.1
20210920012931 66 45 4.3 25.2 0.00 0.00 0.00 81 1020.1
20210920011436 66 340 9.6 23.5 0.00 0.00 0.00 81 1020.2
20210920005925 66 349 11.3 22.6 0.00 0.00 0.00 82 1020.3
20210920004425 66 357 6.1 22.6 0.00 0.00 0.00 81 1020.5
20210920002925 66 323 8.7 20.9 0.00 0.00 0.00 82 1020.4
20210920001427 66 7 12.2 25.2 0.00 0.00 0.00 82 1020.4
20210919235925 66 16 12.2 24.3 0.00 0.00 0.00 82 1020.5
20210919234429 66 347 9.6 30.4 0.00 0.00 0.00 82 1020.5
20210919232924 66 351 8.7 24.3 0.00 0.00 0.00 82 1020.5
20210919231425 66 341 11.3 23.5 0.00 0.00 0.00 82 1020.6
20210919225924 66 333 9.6 23.5 0.00 0.00 0.00 81 1020.7
20210919224430 66 334 13.0 26.1 0.00 0.00 0.00 80 1020.7
20210919222924 66 340 9.6 22.6 0.00 0.00 0.00 79 1020.8
20210919221442 66 11 11.3 21.7 0.00 0.00 0.00 79 1020.8
20210919215921 66 328 9.6 24.3 0.00 0.00 0.00 79 1020.5
20210919214429 66 8 11.3 33.0 0.00 0.00 0.00 78 1020.8
20210919212924 66 353 7.0 23.5 0.00 0.00 0.00 77 1020.9
20210919211427 66 334 13.0 25.2 0.00 0.00 0.00 77 1020.7
20210919205923 67 357 10.4 23.5 0.00 0.00 0.00 77 1020.6
20210919204427 67 336 10.4 20.0 0.00 0.00 0.00 76 1020.5
20210919202923 67 351 12.2 23.5 0.00 0.00 0.00 75 1020.3
20210919201426 67 344 11.3 25.2 0.00 0.00 0.00 74 1020.3
20210919195928 67 355 12.2 22.6 0.00 0.00 0.00 72 1020.3
20210919194430 67 320 9.6 23.5 0.00 0.00 0.00 71 1020.1
20210919192930 68 324 10.4 20.0 0.00 0.00 0.00 70 1020.2
20210919191433 68 9 10.4 19.1 0.00 0.00 0.00 69 1020.1
20210919185922 68 354 12.2 26.1 0.00 0.00 0.00 67 1019.9
20210919184426 69 346 12.2 25.2 0.00 0.00 0.00 68 1019.9
20210919182922 69 359 9.6 20.9 0.00 0.00 0.00 68 1019.8
20210919181424 70 359 9.6 20.0 0.00 0.00 0.00 68 1019.8
20210919175926 70 344 12.2 25.2 0.00 0.00 0.00 66 1019.5
20210919174430 71 359 10.4 22.6 0.00 0.00 0.00 65 1019.4
20210919172923 71 316 13.0 25.2 0.00 0.00 0.00 64 1019.4
20210919171426 72 323 7.8 23.5 0.00 0.00 0.00 61 1019.5
20210919165938 73 334 7.8 20.9 0.00 0.00 0.00 60 1019.7
20210919164425 74 349 9.6 21.7 0.00 0.00 0.00 59 1019.7
20210919162939 74 16 6.1 20.9 0.00 0.00 0.00 59 1019.7
20210919161442 74 343 10.4 20.9 0.00 0.00 0.00 57 1019.8
20210919155927 75 37 6.1 16.5 0.00 0.00 0.00 56 1019.7
20210919154431 76 360 5.2 13.9 0.00 0.00 0.00 56 1019.7
20210919152929 77 338 7.8 20.0 0.00 0.00 0.00 53 1019.7
20210919151434 77 27 5.2 14.8 0.00 0.00 0.00 52 1019.7
20210919145925 77 353 6.1 18.2 0.00 0.00 0.00 50 1019.7
20210919144427 78 347 6.1 15.6 0.00 0.00 0.00 49 1019.7
20210919142929 79 299 6.1 18.2 0.00 0.00 0.00 46 1019.8
20210919141426 81 351 2.6 11.3 0.00 0.00 0.00 42 1019.7
20210919135927 81 19 5.2 12.2 0.00 0.00 0.00 38 1019.8
20210919134430 81 355 1.7 10.4 0.00 0.00 0.00 41 1020.1
20210919132932 80 18 1.7 10.4 0.00 0.00 0.00 41 1020.2
20210919131436 79 18 8.7 16.5 0.00 0.00 0.00 41 1020.4
20210919125924 79 320 7.0 13.0 0.00 0.00 0.00 41 1020.4
20210919124430 78 16 5.2 13.9 0.00 0.00 0.00 43 1020.4
20210919122926 77 15 10.4 20.9 0.00 0.00 0.00 43 1020.4
20210919121429 77 8 7.8 17.4 0.00 0.00 0.00 45 1020.7
20210919115933 77 330 5.2 16.5 0.00 0.00 0.00 47 1020.7
20210919114438 77 20 8.7 14.8 0.00 0.00 0.00 46 1020.7
20210919112938 77 357 2.6 13.9 0.00 0.00 0.00 48 1020.9
20210919111427 76 341 4.3 11.3 0.00 0.00 0.00 50 1021.1
20210919105934 75 321 4.3 19.1 0.00 0.00 0.00 52 1021.3
20210919104438 76 3 5.2 13.9 0.00 0.00 0.00 53 1021.4
20210919102928 74 42 4.3 14.8 0.00 0.00 0.00 57 1021.4